Regional Weather Roundup
Issued by NWS Jackson, KY

Home | Current Version | Previous Version | Graphics & Text | Print | Product List | Glossary On
Versions: 1 2 3 4 5 6 7 8 9 10 11 12 13 14 15 16 17 18 19 20 21 22 23 24 25 26 27 28 29 30 31 32 33 34 35 36 37 38 39 40 41 42 43 44 45 46 47 48 49 50
000
ASUS43 KJKL 200611
RWRJKL

EAST KENTUCKY HOURLY WEATHER ROUNDUP
NATIONAL WEATHER SERVICE JACKSON KY
200 AM EDT MON OCT 20 2014

NOTE: "FAIR" INDICATES FEW OR NO CLOUDS BELOW 12,000 FEET WITH
NO SIGNIFICANT WEATHER AND/OR OBSTRUCTIONS TO VISIBILITY.

* THESE REPORTS ARE NOT UNDER NWS QUALITY CONTROL AND MAY NOT
  REPORT WEATHER SUCH AS PRECIPITATION AND FOG.

KYZ079-080-083-085-087-088-110-112-115-119-120-200700
...EASTERN KENTUCKY...

CITY           SKY/WX    TMP DP  RH WIND       PRES   REMARKS
JACKSON        MOCLDY    44  39  82 CALM      30.07S
6HR MIN TEMP:  44; 6HR MAX TEMP:  54;

LONDON         MOCLDY    44  40  85 CALM      30.08F
6HR MIN TEMP:  43; 6HR MAX TEMP:  50;

SOMERSET*      MOCLDY    43  43 100 CALM      30.09S
MONTICELLO*    FOG       48  44  86 CALM      30.09F VSB 1/2
6HR MIN TEMP:  41; 6HR MAX TEMP:  48;

MIDDLESBORO*   MOCLDY    41  41  99 CALM      30.11F
6HR MIN TEMP:  41; 6HR MAX TEMP:  50;

HARLAN APT*    CLOUDY    41  41 100 CALM      30.10F
HAZARD APT*    CLEAR     43  43 100 CALM      30.07F
BLACK MTN*       N/A     45  30  57 S9          N/A
PIKEVILLE APT* CLEAR     43  39  87 CALM      30.06F
BIG SANDY*     PTCLDY    45  41  86 CALM      30.06F
6HR MIN TEMP:  44; 6HR MAX TEMP:  49;

MOREHEAD APT*  PTCLDY    43  43 100 CALM      30.09F
$$

KYZ035-036-041-042-044-050-067-078-099-200700
...CENTRAL KENTUCKY...

CITY           SKY/WX    TMP DP  RH WIND       PRES   REMARKS
MT STERLING*   MOCLDY    41  41 100 SW3       30.08F
FLEMING/MASON* CLEAR     45  41  87 S5        30.08F
DANVILLE*      MOCLDY    41  39  93 CALM      30.08S
RICHMOND*      MOCLDY    43  37  81 CALM      30.07S
LEXINGTON      MOCLDY    46  40  79 S5        30.07S
6HR MIN TEMP:  44; 6HR MAX TEMP:  55;

FRANKFORT      MOCLDY    42  40  92 CALM      30.06S
6HR MIN TEMP:  42; 6HR MAX TEMP:  48;

$$

KYZ091>093-OHZ055-061-077-WVZ005-015-034-035-042-200700
...SOUTHERN OHIO/WEST VIRGINIA...

CITY           SKY/WX    TMP DP  RH WIND       PRES   REMARKS
COVINGTON      CLOUDY    45  40  82 SW3       30.05S
COLUMBUS       PTCLDY    44  36  73 CALM      30.04F
DAYTON         CLOUDY    47  39  74 S6        30.04S
WILMINGTON     MOCLDY    44  39  82 SW5       30.04S
HUNTINGTON     PTCLDY    41  40  96 CALM      30.07S
CHARLESTON     PTCLDY    40  38  93 CALM      30.08S
PINEVILLE*     PTCLDY    38  38 100 MISG      30.13F
BECKLEY        PTCLDY    43  33  68 SE6       30.07F
BLUEFIELD      MOCLDY    48  30  49 S3        30.10F
$$

VAZ002-007-008-TNZ017-027-036-066-071-200700
...SOUTHWEST VIRGINIA/EAST TENNESSEE...

CITY           SKY/WX    TMP DP  RH WIND       PRES   REMARKS
WISE*          PTCLDY    41  36  81 SW6       30.10F
JONESVILLE*    PTCLDY    39  39 100 CALM      30.13S
ABINGDON*      CLEAR     43  39  87 E3        30.10F
BRISTOL        PTCLDY    41  39  93 NE3       30.10F
KNOXVILLE      MOCLDY    48  45  89 CALM      30.10R
OAK RIDGE      MOCLDY    46  44  93 CALM      30.12S
CROSSVILLE     PTCLDY    44  41  89 CALM      30.10F
NASHVILLE      MOCLDY    48  46  93 S3        30.08F
$$

...KEY TO REMARKS...
VSB - VISIBILITY IN MILES
WCI - WIND CHILL INDEX
HX  - HEAT INDEX

$$


USA.gov is the U.S. government's official web portal to all federal, state and local government web resources and services.